• Join FlightAware (Why Join?)
  • Login
  • US Flag 
02:27AM EDT


 

Airport Tracker/Info


-or-


 

Live Flight TrackerFlight Track Log ✈ UAL4336 ✈ 19-Apr-2013 ✈ KIAH - KBTR

Flight Track Log - Related Links

Times and Time Zones

All times are in EDT time to prevent confusion due to time zone crossing. See the UAL4336 flight status page for this flight to view local times or setup timezone preferences in your user account.

Time Position Orientation Groundspeed Altitude Reporting Facility
EDT Latitude Longitude Course Direction KTS MPH feet Rate Location/Type
10:16AM 29.9764 -95.2983 90° East 167 192 900  Level Houston Center
10:17AM 29.9231 -95.2422 138° Southeast 264 304 3,000 1,560 Climbing Houston Center
10:18AM 29.9042 -95.2203 135° Southeast 258 297 3,400 1,140 Climbing Houston Center
10:18AM 29.8578 -95.1731 139° Southeast 314 361 4,200 1,500 Climbing Houston Center
10:19AM 29.8506 -95.1489 109° East 282 325 5,000 2,700 Climbing Houston Center
10:19AM 29.8289 -95.0875 112° Southeast 287 330 7,000 2,400 Climbing Houston Center
10:20AM 29.8281 -95.0597 92° East 291 335 7,500 1,920 Climbing Houston Center
10:20AM 29.8408 -94.9919 78° East 300 345 9,000 1,920 Climbing Houston Center
10:21AM 29.9834 -94.7253 90° East  Level FlightAware Approximate
10:21AM 29.8478 -94.9653 73° East 305 351 9,500  Level Houston Center
10:22AM 29.8717 -94.8592 75° East 335 386 10,800 1,080 Climbing Houston Center
10:23AM 29.8994 -94.7347 76° East 394 453 11,800 1,500 Climbing Houston Center
10:24AM 29.9344 -94.5797 75° East 414 476 13,900 2,160 Climbing Houston Center
10:25AM 29.9625 -94.4569 75° East 402 463 16,300 1,800 Climbing Houston Center
10:26AM 29.9886 -94.3358 76° East 394 453 17,700 1,260 Climbing Houston Center
10:27AM 30.0081 -94.2056 80° East 409 471 19,000 600 Climbing Houston Center
10:28AM 30.0256 -94.0672 82° East 434 499 19,000  Level Houston Center
10:29AM 30.0431 -93.9306 82° East 432 497 19,000  Level Houston Center
10:30AM 30.0633 -93.7600 82° East 447 514 19,000  Level Houston Center
10:31AM 30.0817 -93.6097 82° East 470 541 19,000  Level Houston Center
10:32AM 30.1011 -93.4433 82° East 479 551 19,000  Level Houston Center
10:33AM 30.1192 -93.2911 82° East 482 555 19,000  Level Houston Center
10:34AM 30.1378 -93.1375 82° East 485 558 19,000  Level Houston Center
10:35AM 30.1642 -92.9844 79° East 488 562 19,000  Level Houston Center
10:36AM 30.1944 -92.8314 77° East 493 567 19,000  Level Houston Center
10:37AM 30.2311 -92.6478 77° East 490 564 19,000  Level Houston Center
10:38AM 30.2597 -92.4947 78° East 491 565 19,000 -60 Level Houston Center
10:39AM 30.2892 -92.3411 77° East 491 565 18,900 -660 Descending Houston Center
10:40AM 30.3183 -92.1914 77° East 485 558 17,700 -1,800 Descending Houston Center
10:41AM 30.3450 -92.0467 78° East 470 541 15,300 -2,640 Descending Houston Center
10:43AM 30.3781 -91.8794 77° East 451 519 12,200 -2,100 Descending Houston Center
10:44AM 30.4011 -91.7569 78° East 403 464 11,000 -600 Descending Houston Center
10:45AM 30.4197 -91.6553 78° East 360 414 11,000 -180 Level Houston Center
10:46AM 30.4378 -91.5486 79° East 344 396 10,700 -1,080 Descending Houston Center
10:47AM 30.4361 -91.4414 91° East 338 389 8,800 -1,920 Descending Houston Center
10:48AM 30.4292 -91.3178 94° East 324 373 6,800 -1,800 Descending Houston Center
10:49AM 30.3975 -91.2325 113° Southeast 295 339 5,200 -1,620 Descending Houston Center
10:50AM 30.3767 -91.1522 107° East 276 318 3,500 -1,140 Descending Houston Center
10:51AM 30.4358 -91.1069 33° Northeast 271 312 2,900 -600 Descending Houston Center